Theta_e
313 316 316 322 328 325 326 325 327 331 335 335 335 338 341 339 339 339 335 328 331 327 326 324 322 321 319 318 317 317 318 319 319 319 318 318 318 317 317 316 317 316 317 317 318 318 315 313 312
324 318 323 326 326 327 326 326 327 329 331 331 333 335 338 340 338 335 331 327 327 327 326 324 323 321 320 320 318 318 318 319 319 319 319 319 319 319 319 318 318 317 317 318 320 321 321 321 317
321 321 325 325 326 326 326 326 326 326 329 331 333 334 336 336 338 335 332 327 327 327 326 325 324 323 321 321 319 319 319 319 319 319 319 319 319 320 320 320 319 318 317 318 320 321 321 322 322
320 321 323 328 326 325 326 327 327 328 331 332 334 336 333 336 337 336 327 327 328 327 326 325 324 324 323 322 320 319 318 318 318 319 319 320 320 320 321 321 321 320 318 318 320 321 322 322 325
321 323 323 324 324 325 326 325 327 330 330 331 333 336 336 336 334 336 327 327 328 328 327 326 325 324 323 322 320 318 317 317 318 318 319 319 320 320 321 321 321 321 320 320 320 322 323 323 324
322 323 323 323 324 324 325 324 325 327 328 330 332 334 337 336 335 333 328 328 331 328 326 326 325 323 323 322 321 319 318 318 317 317 318 319 319 320 321 321 321 322 321 321 321 321 322 323 322
323 323 322 322 322 322 323 323 324 326 327 330 332 336 336 336 338 336 329 328 333 327 326 327 326 325 324 322 322 321 319 318 318 317 317 318 319 320 320 321 321 321 321 322 322 322 321 322 322
323 324 323 322 322 323 324 325 324 324 326 330 331 336 337 333 338 338 335 336 331 327 327 327 327 326 325 324 322 321 320 319 318 317 317 317 318 319 320 320 321 321 321 321 322 323 323 322 321
324 326 326 324 321 321 322 324 323 328 328 330 330 331 330 331 334 338 337 336 335 335 328 328 328 327 326 325 323 322 320 319 318 317 317 316 317 318 319 320 320 321 320 321 322 322 324 323 323
326 328 327 325 323 322 322 322 325 328 328 331 330 330 330 332 335 339 339 336 335 336 332 330 330 330 328 326 324 324 323 321 320 318 317 317 317 326 321 320 320 320 320 320 321 322 327 325 334
326 329 327 326 324 322 322 323 323 326 329 331 331 331 331 330 331 332 334 338 336 337 338 336 332 332 331 329 329 329 328 326 324 321 319 319 326 332 328 330 321 319 320 323 323 323 333 337 336
327 327 327 327 326 324 324 323 324 323 324 326 327 328 328 329 331 331 332 333 334 337 339 341 332 332 332 333 333 332 332 333 337 339 326 322 328 333 334 331 331 326 331 332 335 336 338 337 337
325 326 326 325 325 325 325 325 326 326 325 325 326 328 329 329 330 330 330 331 332 333 335 338 333 328 327 327 327 327 328 333 339 340 336 330 336 335 334 332 330 331 333 334 336 336 337 337 337
322 323 324 325 325 326 326 326 327 328 328 328 329 330 329 329 329 329 329 330 332 332 331 334 329 327 326 326 326 326 326 330 335 340 340 336 338 336 335 334 332 330 331 333 334 335 336 337 337
318 321 322 324 325 325 327 328 330 328 329 330 329 329 329 329 329 329 329 330 332 331 327 327 327 326 326 325 325 325 325 328 336 339 340 339 337 338 335 336 333 331 330 333 333 333 335 337 336
317 318 321 322 324 324 325 329 329 327 327 329 329 329 329 329 329 329 329 330 331 329 327 326 326 325 325 324 324 325 325 327 329 339 341 335 335 336 337 337 335 333 332 333 331 330 333 335 336
318 319 320 321 323 324 324 327 328 326 328 328 328 328 328 329 329 329 329 330 330 326 325 325 325 325 324 324 326 325 325 326 328 336 338 334 333 334 337 340 338 335 333 332 330 330 335 336 335
316 319 319 321 322 323 323 324 325 326 326 327 327 327 328 328 329 329 329 329 328 328 325 324 324 325 324 323 326 326 327 327 331 336 336 332 332 333 335 340 339 335 333 330 331 335 336 335 333
314 317 319 320 320 322 324 324 325 324 324 326 326 327 327 327 327 327 327 327 327 326 323 323 323 324 324 323 327 329 331 332 338 338 333 331 332 336 336 341 336 329 331 333 336 336 336 335 331
312 315 317 319 318 321 322 324 324 325 325 325 326 326 326 326 326 326 326 326 326 327 323 322 322 323 323 323 324 332 335 342 342 340 331 331 333 337 338 339 336 335 336 336 336 335 334 333 330
312 313 315 317 318 320 321 323 324 324 324 324 324 324 323 324 324 324 323 324 325 326 324 322 321 321 321 322 324 327 330 334 338 340 334 333 338 338 338 338 338 334 338 337 334 334 333 333 330
311 311 312 314 318 320 320 323 323 323 324 324 323 323 323 323 323 322 322 322 324 325 325 325 319 320 320 321 327 327 336 341 341 341 343 339 339 338 339 339 334 334 338 336 334 334 333 332 332
310 311 312 315 316 318 319 322 322 322 323 324 324 323 322 321 321 321 321 321 322 322 323 324 318 319 319 322 327 327 337 343 343 344 340 342 339 340 340 335 334 334 336 333 333 333 333 331 331
311 311 312 314 316 319 318 319 320 321 322 322 323 321 320 320 320 321 321 321 321 321 322 324 318 319 319 325 328 329 343 343 344 345 345 344 343 341 337 336 337 335 335 332 332 332 332 331 331
310 311 312 314 316 317 318 319 320 321 320 321 321 320 320 320 321 322 322 324 322 323 324 329 320 320 323 328 331 334 334 338 340 341 344 343 341 340 335 336 335 334 332 333 332 331 331 331 330
310 310 313 314 315 315 316 317 319 319 320 320 319 319 320 323 324 326 328 330 324 324 327 334 337 340 332 334 336 339 338 344 343 342 341 340 338 337 337 336 336 335 335 334 332 332 332 329 329
311 310 311 311 312 314 316 316 317 319 319 320 319 319 320 323 327 332 334 333 329 326 332 336 341 343 344 342 342 341 343 343 342 341 338 338 338 338 336 336 335 335 334 334 331 332 331 330 330
312 310 311 310 314 313 315 317 317 318 318 319 320 320 320 321 324 329 336 335 331 334 339 342 344 345 344 343 343 343 342 341 336 334 338 338 337 337 334 335 334 334 334 333 331 331 330 329 327
313 311 311 312 311 311 314 316 318 319 319 320 320 319 319 320 322 328 337 335 337 339 342 344 345 345 344 344 342 340 339 338 337 337 336 336 332 334 335 334 334 334 333 332 331 331 331 331 330
311 313 313 315 315 313 314 318 319 320 320 320 319 318 319 319 320 328 337 337 339 341 343 344 344 343 343 341 340 339 338 338 337 336 336 335 334 334 334 333 333 333 333 332 330 331 331 328 330
Wind_Speed
11 6 4 5 7 7 13 9 14 6 9 3 2 6 12 1 13 2 9 19 17 20 21 21 20 19 19 19 20 20 18 16 14 14 13 12 11 9 8 8 8 7 5 4 2 1 2 3 3
8 8 5 7 8 12 11 13 11 8 6 6 11 13 10 13 9 2 14 21 20 20 21 22 21 21 19 19 19 18 18 18 16 15 14 13 11 10 9 8 7 6 5 4 3 2 1 2 2
9 8 9 6 13 16 11 7 12 11 5 10 5 6 15 8 11 3 12 23 21 21 19 20 20 20 19 18 19 19 19 18 18 16 16 14 13 12 10 8 6 5 4 4 3 2 2 2 3
7 7 8 11 18 15 17 2 2 7 4 2 7 6 9 7 3 9 21 23 21 20 20 18 20 20 17 17 19 19 19 19 19 17 16 15 13 12 10 8 6 4 3 3 3 2 2 3 4
8 8 11 16 22 20 11 15 9 10 9 9 7 13 9 5 10 14 23 23 23 21 20 18 20 19 17 18 18 19 19 20 19 19 17 16 14 12 11 9 7 5 4 3 2 2 3 3 5
11 8 12 17 20 16 17 18 15 17 15 13 12 16 12 5 9 18 23 23 21 21 21 20 20 20 20 20 19 19 20 20 20 20 20 18 16 15 13 11 9 7 5 3 2 3 3 4 5
16 11 17 20 18 15 17 16 17 17 13 13 7 11 10 6 8 17 23 23 20 22 22 20 20 20 20 21 21 21 21 22 22 22 22 20 19 17 15 14 12 10 7 5 4 4 3 4 6
16 9 20 19 16 21 15 10 15 13 18 3 4 7 9 5 9 14 18 19 21 23 22 21 21 22 22 23 25 24 24 25 24 25 24 24 23 21 19 17 16 14 9 8 9 8 7 6 6
16 13 16 21 16 16 12 14 19 9 12 7 3 3 5 3 15 10 15 18 19 19 24 23 22 22 22 24 26 26 27 28 27 28 27 28 27 26 24 22 20 16 14 14 13 13 10 9 7
17 16 24 17 12 13 19 19 13 8 15 13 9 7 5 8 4 6 13 20 22 20 22 22 21 22 24 26 27 28 28 31 32 33 32 32 30 25 25 26 23 20 18 19 14 15 12 12 6
25 25 19 22 17 18 22 22 19 16 17 16 13 9 7 5 5 4 8 16 20 19 18 20 21 21 23 24 25 27 29 30 32 34 34 33 28 24 26 23 26 25 25 19 18 17 14 10 8
25 28 31 26 21 18 20 23 26 26 27 26 11 14 17 14 13 10 10 12 16 20 19 17 19 18 20 23 26 27 28 28 26 25 31 33 30 27 26 25 22 24 20 19 16 13 14 12 11
28 28 28 26 26 25 19 28 25 28 29 27 25 22 22 23 18 14 14 14 15 15 16 15 16 12 14 17 20 25 29 30 25 25 28 30 28 29 26 25 24 22 19 18 16 15 15 14 13
26 29 35 34 25 22 26 30 29 28 29 28 26 28 26 21 20 18 17 19 17 15 13 12 15 16 19 21 24 25 29 30 29 24 25 31 27 28 25 25 24 24 21 19 17 16 15 15 15
30 27 25 23 31 30 23 24 36 33 35 26 24 25 26 23 21 20 20 20 18 16 15 13 18 22 23 25 26 28 30 29 23 22 26 28 27 26 26 22 23 23 22 20 17 16 15 15 15
18 23 24 33 24 29 26 32 37 32 34 36 34 32 30 26 23 20 18 18 16 14 14 16 18 24 27 24 24 27 28 26 22 21 21 25 24 23 23 22 22 21 21 18 17 16 17 16 13
21 24 32 31 30 25 18 32 35 38 28 25 28 26 27 25 22 20 17 19 17 15 15 21 25 24 23 23 23 25 26 26 22 21 20 22 20 19 20 19 19 21 19 18 17 16 17 13 11
26 29 29 30 23 27 30 34 29 25 13 26 30 30 29 26 24 22 19 19 19 20 26 29 27 26 25 24 22 22 22 22 20 21 19 20 17 16 18 17 17 19 17 17 16 19 11 11 11
27 29 26 29 23 25 28 34 32 32 36 29 30 27 27 28 28 27 25 23 22 26 28 27 28 26 27 25 19 19 20 18 18 18 19 18 17 16 17 16 17 15 16 16 17 13 11 12 13
28 30 32 22 16 21 28 33 28 27 27 34 35 33 33 31 28 27 26 25 25 26 26 22 22 25 25 25 19 16 15 16 15 15 17 16 15 16 16 17 14 14 14 16 15 14 11 11 12
24 27 26 29 16 19 21 29 29 28 31 32 30 31 31 30 31 30 29 27 24 24 24 24 22 22 22 21 20 18 17 14 15 15 15 16 14 16 17 17 14 14 14 15 15 13 12 10 13
24 24 27 26 25 19 21 22 24 26 27 28 33 31 29 27 26 27 30 30 29 29 27 26 26 25 23 21 18 18 15 14 13 14 14 14 16 18 18 19 15 14 14 15 13 11 11 11 8
23 21 26 20 23 25 29 17 17 17 20 20 19 26 28 28 28 29 29 29 29 28 25 24 27 26 26 22 18 18 15 13 13 15 15 16 18 18 17 17 16 16 14 15 12 11 10 9 10
17 17 21 18 20 22 33 24 23 22 25 22 20 20 21 19 18 17 19 20 22 23 22 21 22 25 24 19 17 17 18 16 17 17 18 16 16 16 17 16 16 15 14 14 12 12 10 10 10
15 17 13 15 13 16 22 23 20 7 6 12 13 7 6 7 8 11 12 14 15 19 19 16 21 23 21 16 16 19 17 17 17 18 17 18 16 15 17 17 16 14 14 12 12 11 9 10 9
18 18 13 19 17 20 22 15 17 17 24 16 12 12 3 7 7 9 13 13 12 14 18 15 16 18 18 18 19 19 19 16 16 16 16 14 14 13 16 15 13 12 11 11 11 8 9 9 9
22 18 21 23 24 19 18 24 22 8 9 9 3 5 4 9 11 13 13 10 11 12 16 17 17 18 19 20 21 21 18 17 17 16 17 15 14 13 13 13 12 11 10 10 10 8 8 8 10
21 12 13 14 14 17 18 21 12 25 27 16 5 1 7 12 14 17 13 7 5 10 13 16 18 20 21 21 20 19 18 17 18 18 15 14 13 12 12 11 11 10 10 10 10 8 8 10 8
13 18 9 16 13 16 13 16 18 12 14 12 5 5 12 15 17 18 14 5 5 11 14 18 20 22 22 21 20 20 19 18 17 15 13 12 12 11 10 10 10 10 10 10 9 9 10 8 7
13 8 5 11 14 15 15 3 2 14 15 8 3 11 14 17 18 18 14 5 6 13 17 19 21 21 22 21 21 20 19 17 15 14 12 11 10 10 10 10 10 10 10 9 9 9 8 9 6
Wind_Direction
210 212 181 212 237 236 238 225 243 223 200 159 103 202 209 320 168 233 156 172 170 181 192 195 193 186 177 176 178 178 173 171 173 176 176 174 174 172 171 163 152 148 152 157 160 275 242 223 245
182 188 179 249 250 225 228 221 209 224 231 284 256 234 245 246 236 310 158 168 182 186 189 197 192 191 185 184 184 183 182 182 184 185 186 183 181 182 178 173 162 157 147 150 163 181 254 271 240
173 186 228 233 237 246 246 179 229 224 256 269 265 228 211 229 222 190 173 171 180 190 194 196 196 195 192 193 191 193 193 193 194 194 194 194 193 192 186 180 172 166 162 157 168 186 206 240 264
173 194 240 245 241 234 254 80 274 170 248 233 238 251 214 218 189 204 175 176 181 188 195 197 200 202 201 204 202 205 203 204 205 204 204 205 203 200 196 191 184 179 175 179 196 204 223 239 255
193 240 239 232 245 251 245 262 253 272 275 273 258 248 231 227 219 180 178 180 184 187 188 199 205 211 213 216 214 215 214 215 215 215 216 215 214 211 207 205 201 198 191 190 218 235 252 253 260
213 243 240 240 244 243 250 253 261 261 271 271 259 239 239 208 207 180 180 184 188 191 193 203 208 216 222 225 225 225 227 227 224 224 224 222 220 220 218 218 217 221 218 217 229 233 247 261 277
240 224 244 251 257 266 253 246 250 259 256 247 277 246 219 213 182 172 178 191 195 202 202 204 210 219 226 234 237 234 235 237 235 232 231 231 229 227 226 227 228 234 235 245 267 266 265 271 285
229 242 255 248 251 255 260 250 243 250 253 246 211 236 161 252 188 183 181 192 204 213 214 213 220 225 228 234 238 239 239 242 241 240 237 239 235 232 229 232 235 240 246 267 281 271 277 273 281
230 241 242 243 231 252 256 255 247 247 248 220 227 132 19 169 187 182 192 198 207 216 221 222 227 234 240 242 245 244 242 243 244 243 243 242 238 236 233 235 238 244 254 260 259 265 262 274 269
217 229 242 250 254 248 245 252 254 248 231 224 216 214 49 61 109 200 210 209 212 218 224 227 230 236 242 246 249 256 252 250 247 245 242 240 236 231 232 239 238 244 248 251 255 261 251 267 248
223 241 239 242 245 252 261 258 247 243 247 233 223 227 230 298 286 252 229 225 227 232 234 233 237 242 249 253 257 261 262 257 250 246 241 242 233 225 233 229 236 238 244 244 251 252 244 241 235
238 246 246 254 243 247 256 262 260 254 254 249 236 252 277 279 282 260 242 236 240 242 240 235 258 266 274 270 276 275 266 258 244 240 243 235 235 226 225 225 228 234 233 235 234 242 240 244 243
237 243 245 246 255 251 260 255 256 255 251 250 256 260 265 277 271 268 271 258 253 252 247 246 257 278 280 286 281 279 272 262 239 239 246 239 229 228 229 227 226 230 228 236 234 235 242 250 250
244 245 249 251 239 246 250 257 256 249 251 256 254 257 260 257 259 264 261 257 256 258 258 251 243 268 280 286 286 282 273 260 253 236 234 250 234 231 229 232 230 228 230 233 234 237 242 252 254
254 259 261 243 242 239 241 266 249 245 249 252 250 251 255 258 258 252 249 250 255 254 252 241 259 272 277 285 280 276 270 259 245 239 234 239 243 232 234 232 229 229 231 226 229 231 244 253 246
259 245 246 237 230 241 226 254 258 234 237 246 249 252 255 255 253 247 247 245 242 244 256 267 275 279 282 281 275 273 266 260 255 232 226 238 240 228 233 227 227 225 224 230 232 240 246 252 255
241 243 236 244 229 223 209 240 250 258 243 233 243 245 251 253 247 245 246 245 247 253 254 271 288 285 287 289 275 270 259 258 248 230 225 237 236 232 223 225 223 220 219 224 229 239 239 249 264
235 236 245 256 235 222 226 244 249 243 234 245 243 245 248 250 250 253 253 256 254 259 275 277 279 277 285 290 278 258 252 253 233 227 224 233 232 230 227 218 214 218 209 220 227 231 232 248 252
260 267 266 255 249 254 226 240 246 244 252 249 252 249 250 251 259 264 265 267 267 273 277 272 265 266 274 286 270 253 247 235 220 219 226 228 225 218 221 207 214 207 210 213 218 221 233 240 258
250 252 255 261 283 245 246 243 246 249 250 251 251 252 256 260 261 263 267 266 267 267 270 279 275 265 260 271 270 245 228 215 211 214 227 221 218 212 205 195 192 197 200 205 213 213 227 249 259
260 252 251 251 268 239 254 252 249 244 245 252 256 255 258 259 263 266 265 266 267 264 270 273 279 277 267 262 259 239 219 215 202 206 210 209 201 198 189 186 180 195 190 215 210 221 233 240 256
260 251 254 249 244 242 219 253 242 233 239 243 248 251 256 258 260 265 271 273 272 272 269 266 266 268 268 261 239 230 207 199 200 193 186 192 187 184 183 184 188 192 192 214 215 226 238 241 243
260 253 249 240 240 249 246 251 253 259 254 252 254 255 258 263 263 268 272 273 269 263 259 254 249 255 262 253 231 225 195 197 178 169 182 173 180 181 181 186 195 196 196 224 220 229 242 239 228
251 256 239 246 238 230 236 241 253 252 253 250 250 251 261 261 263 262 272 273 263 251 244 239 240 241 246 237 225 204 188 180 169 167 162 163 169 174 185 190 191 201 210 224 232 239 244 217 225
245 243 231 221 230 242 227 228 238 242 329 294 250 235 276 279 261 275 275 277 259 239 222 218 220 225 225 216 200 187 183 176 173 166 161 163 170 175 190 190 199 212 220 224 237 243 220 225 228
245 231 230 222 224 233 231 234 224 238 253 207 273 263 264 338 327 300 298 283 247 230 209 201 199 199 197 187 176 169 167 160 159 158 165 164 169 175 195 195 206 209 215 226 232 224 220 227 224
252 250 241 264 278 246 219 219 251 226 217 204 186 204 329 352 349 336 320 292 242 216 201 195 186 179 170 164 161 160 153 151 158 159 156 162 168 185 184 191 200 210 220 218 218 210 221 214 211
244 262 269 243 251 240 236 209 223 216 232 234 164 85 9 7 351 350 341 323 214 189 180 172 169 164 157 155 155 154 154 154 157 160 155 160 171 171 189 197 208 210 205 203 204 218 216 209 221
284 226 216 261 259 255 221 221 212 241 190 147 112 27 18 3 352 355 350 346 178 169 162 157 156 153 151 151 149 146 145 147 151 155 160 170 185 189 191 198 199 196 194 195 198 201 212 213 214
241 228 322 263 231 252 275 72 110 155 119 113 20 14 3 357 351 359 360 13 159 156 153 152 152 151 151 149 146 146 144 148 150 154 161 173 175 181 185 181 184 183 189 195 194 196 211 213 224